Charlotte, MI

9:53 PM EST on February 24, 2017 (GMT -0500)
Charlotte

Weather History for KFPK - October, 2012

Change the Weather History Date:

Tuesday, October 9, 2012

  Actual Average (KLAN) Record (KLAN)
Temperature  
Mean Temperature 50 °F -  
Max Temperature 62 °F 60 °F 84 °F (1939)
Min Temperature 38 °F 41 °F 23 °F (1989)
Degree Days  
Heating Degree Days 15    
Moisture  
Dew Point 34 °F    
Average Humidity 54    
Maximum Humidity 72    
Minimum Humidity 37    
Precipitation  
Precipitation 0.00 in - - ()
Sea Level Pressure  
Sea Level Pressure 29.94 in    
Wind  
Wind Speed 10 mph (SSW)    
Max Wind Speed 23 mph    
Max Gust Speed 29 mph    
Visibility 10 miles    
Events      
Averages and records for this station are not official NWS values.
T = Trace of Precipitation, MM = Missing Value Source: NWS Daily Summary

Daily Weather History Graph

Daily Weather History Graph

Search for Another Location

Airport or City:

Trip Planner

Search our weather history database for the weather conditions in past years. The results will help you decide how hot, cold, wet, or windy it might be!

Date:

Astronomy

Oct. 09, 2012 Rise Set
Actual Time 7:45 AM EDT 7:06 PM EDT
Civil Twilight 7:17 AM EDT 7:34 PM EDT
Nautical Twilight 6:45 AM EDT 8:06 PM EDT
Astronomical Twilight 6:12 AM EDT 8:39 PM EDT
Moon 1:14 AM EDT (10/9) 3:39 PM EDT (10/9)
Length of Visible Light 12h 16m
Length of Day
11h 20m
Last Quarter, 37% of the Moon is Illuminated
Oct 9
Last Quarter
Oct 15
New
Oct 21
First Quarter
Oct 29
Full
Nov 6
Last Quarter

Hourly Weather History & Observations

Time (EDT) Temp. Windchill Dew Point Humidity Pressure Visibility Wind Dir Wind Speed Gust Speed Precip Events Conditions
12:35 AM 38.5 °F 33.4 °F 29.5 °F 70% 30.05 in 10.0 mi South 6.9 mph - N/A   Clear
12:55 AM 39.2 °F 35.0 °F 29.7 °F 69% 30.05 in 10.0 mi South 5.8 mph - N/A   Clear
1:15 AM 39.4 °F 33.8 °F 29.8 °F 69% 30.05 in 10.0 mi South 8.1 mph - N/A   Clear
1:35 AM 40.5 °F 36.5 °F 30.2 °F 67% 30.05 in 10.0 mi SSW 5.8 mph - N/A   Clear
1:55 AM 40.6 °F 36.7 °F 30.2 °F 66% 30.05 in 10.0 mi South 5.8 mph - N/A   Clear
2:15 AM 40.1 °F 35.3 °F 30.2 °F 68% 30.05 in 10.0 mi South 6.9 mph - N/A   Clear
2:55 AM 39.0 °F 34.8 °F 30.0 °F 70% 30.05 in 10.0 mi South 5.8 mph - N/A   Clear
3:15 AM 39.2 °F 34.2 °F 30.2 °F 70% 30.04 in 10.0 mi SSW 6.9 mph - N/A   Clear
3:55 AM 40.1 °F 34.7 °F 30.7 °F 69% 30.03 in 10.0 mi South 8.1 mph - N/A   Clear
4:15 AM 40.5 °F 35.1 °F 31.1 °F 69% 30.03 in 10.0 mi SSW 8.1 mph - N/A   Clear
4:36 AM 40.1 °F 36.1 °F 30.2 °F 68% 30.03 in 10.0 mi SSW 5.8 mph - N/A   Clear
4:55 AM 39.6 °F 34.7 °F 30.7 °F 71% 30.03 in 10.0 mi South 6.9 mph - N/A   Clear
5:15 AM 40.3 °F 34.9 °F 31.6 °F 71% 30.03 in 10.0 mi South 8.1 mph - N/A   Clear
5:35 AM 41.7 °F 36.7 °F 31.8 °F 68% 30.02 in 10.0 mi South 8.1 mph - N/A   Clear
5:55 AM 42.4 °F 37.0 °F 32.0 °F 67% 30.02 in 10.0 mi South 9.2 mph - N/A   Clear
6:15 AM 42.8 °F 37.5 °F 32.0 °F 66% 30.02 in 10.0 mi South 9.2 mph - N/A   Clear
6:35 AM 42.3 °F 36.8 °F 32.0 °F 67% 30.02 in 10.0 mi South 9.2 mph - N/A   Scattered Clouds
6:55 AM 41.7 °F 36.1 °F 32.0 °F 68% 30.02 in 10.0 mi South 9.2 mph - N/A   Clear
7:15 AM 41.7 °F 36.7 °F 32.0 °F 68% 30.02 in 10.0 mi South 8.1 mph - N/A   Clear
7:35 AM 41.0 °F 35.8 °F 32.0 °F 70% 30.01 in 10.0 mi South 8.1 mph - N/A   Clear
7:55 AM 41.0 °F 35.8 °F 32.0 °F 70% 30.01 in 10.0 mi South 8.1 mph - N/A   Clear
8:15 AM 40.6 °F 36.0 °F 32.2 °F 72% 30.01 in 10.0 mi South 6.9 mph - N/A   Clear
8:35 AM 42.6 °F 37.8 °F 32.9 °F 68% 30.01 in 10.0 mi South 8.1 mph - N/A   Clear
8:55 AM 45.0 °F 39.7 °F 33.8 °F 65% 30.01 in 10.0 mi South 10.4 mph - N/A   Clear
9:15 AM 47.5 °F - 34.0 °F 59% 30.01 in 10.0 mi South 12.7 mph - N/A   Clear
9:35 AM 48.2 °F - 34.0 °F 58% 30.00 in 10.0 mi SSW 11.5 mph 17.3 mph N/A   Clear
9:55 AM 50.4 °F - 34.9 °F 55% 30.00 in 10.0 mi South 12.7 mph 17.3 mph N/A   Clear
10:15 AM 52.3 °F - 35.2 °F 52% 29.99 in 10.0 mi SSW 12.7 mph 20.7 mph N/A   Clear
10:35 AM 53.6 °F - 35.4 °F 50% 29.99 in 10.0 mi SSW 13.8 mph 19.6 mph N/A   Clear
10:55 AM 53.2 °F - 35.1 °F 50% 29.99 in 10.0 mi SSW 12.7 mph 21.9 mph N/A   Clear
11:15 AM 54.3 °F - 35.6 °F 49% 29.98 in 10.0 mi SSW 16.1 mph 23.0 mph N/A   Clear
11:35 AM 55.6 °F - 36.1 °F 48% 29.98 in 10.0 mi SSW 16.1 mph 23.0 mph N/A   Clear
11:55 AM 57.9 °F - 36.1 °F 44% 29.97 in 10.0 mi SSW 15.0 mph 23.0 mph N/A   Clear
12:15 PM 59.0 °F - 35.8 °F 42% 29.96 in 10.0 mi South 17.3 mph 25.3 mph N/A   Clear
12:35 PM 59.4 °F - 35.2 °F 40% 29.96 in 10.0 mi SSW 19.6 mph 28.8 mph N/A   Clear
12:55 PM 60.3 °F - 36.0 °F 40% 29.95 in 10.0 mi SSW 13.8 mph - N/A   Clear
1:15 PM 60.6 °F - 35.6 °F 39% 29.94 in 10.0 mi SSW 17.3 mph 27.6 mph N/A   Clear
1:35 PM 60.1 °F - 35.8 °F 40% 29.93 in 10.0 mi SSW 17.3 mph 28.8 mph N/A   Clear
1:55 PM 61.7 °F - 36.1 °F 39% 29.92 in 10.0 mi SSW 16.1 mph 26.5 mph N/A   Clear
2:15 PM 61.7 °F - 35.8 °F 38% 29.91 in 10.0 mi SSW 18.4 mph 21.9 mph N/A   Clear
2:35 PM 62.6 °F - 35.8 °F 37% 29.90 in 10.0 mi South 23.0 mph - N/A   Clear
2:55 PM 62.2 °F - 35.6 °F 37% 29.89 in 10.0 mi SSW 18.4 mph 26.5 mph N/A   Clear
3:15 PM 62.1 °F - 35.8 °F 38% 29.89 in 10.0 mi SSW 18.4 mph 21.9 mph N/A   Clear
3:35 PM 61.7 °F - 35.6 °F 38% 29.88 in 10.0 mi South 17.3 mph 26.5 mph N/A   Clear
3:55 PM 60.8 °F - 35.1 °F 38% 29.87 in 10.0 mi SSW 16.1 mph 25.3 mph N/A   Clear
4:15 PM 60.6 °F - 35.2 °F 39% 29.87 in 10.0 mi SSW 13.8 mph 25.3 mph N/A   Clear
4:36 PM 60.8 °F - 35.4 °F 39% 29.87 in 10.0 mi SSW 13.8 mph 23.0 mph N/A   Clear
4:55 PM 61.2 °F - 35.6 °F 39% 29.86 in 10.0 mi SSW 11.5 mph 21.9 mph N/A   Clear
5:16 PM 61.7 °F - 35.6 °F 38% 29.86 in 10.0 mi SSW 15.0 mph 20.7 mph N/A   Clear
5:35 PM 61.7 °F - 36.0 °F 38% 29.86 in 10.0 mi SSW 12.7 mph 19.6 mph N/A   Clear
5:55 PM 61.0 °F - 36.0 °F 39% 29.85 in 10.0 mi SSW 11.5 mph 17.3 mph N/A   Clear
6:15 PM 60.1 °F - 35.4 °F 40% 29.85 in 10.0 mi SSW 11.5 mph 20.7 mph N/A   Clear
6:35 PM 59.0 °F - 35.8 °F 42% 29.84 in 10.0 mi SSW 12.7 mph 17.3 mph N/A   Clear
6:55 PM 58.6 °F - 36.0 °F 43% 29.85 in 10.0 mi SSW 10.4 mph 16.1 mph N/A   Scattered Clouds
7:15 PM 58.3 °F - 36.1 °F 44% 29.84 in 10.0 mi SSW 9.2 mph - N/A   Scattered Clouds
7:36 PM 57.4 °F - 36.7 °F 46% 29.84 in 10.0 mi South 9.2 mph - N/A   Scattered Clouds
7:55 PM 57.4 °F - 36.7 °F 46% 29.84 in 10.0 mi South 10.4 mph 18.4 mph N/A   Scattered Clouds
8:15 PM 56.8 °F - 36.9 °F 47% 29.84 in 10.0 mi South 10.4 mph - N/A   Clear
8:36 PM 55.9 °F - 37.4 °F 50% 29.84 in 10.0 mi South 11.5 mph - N/A   Clear
8:55 PM 55.4 °F - 37.4 °F 51% 29.84 in 10.0 mi South 9.2 mph - N/A   Clear
9:16 PM 55.0 °F - 37.8 °F 52% 29.83 in 10.0 mi South 10.4 mph - N/A   Scattered Clouds
9:35 PM 54.5 °F - 38.1 °F 54% 29.83 in 10.0 mi South 10.4 mph - N/A   Scattered Clouds
9:56 PM 54.7 °F - 38.1 °F 54% 29.81 in 10.0 mi South 10.4 mph 17.3 mph N/A   Clear
10:15 PM 54.9 °F - 38.3 °F 54% 29.81 in 10.0 mi South 13.8 mph - N/A   Clear
10:36 PM 55.4 °F - 37.9 °F 52% 29.80 in 10.0 mi SSW 13.8 mph - N/A   Clear
10:55 PM 55.4 °F - 37.9 °F 52% 29.79 in 10.0 mi SSW 13.8 mph 19.6 mph N/A   Clear
11:16 PM 54.9 °F - 37.9 °F 53% 29.79 in 10.0 mi SSW 13.8 mph 19.6 mph N/A   Clear
11:35 PM 54.9 °F - 38.3 °F 54% 29.78 in 10.0 mi SSW 9.2 mph 17.3 mph N/A   Scattered Clouds
11:56 PM 55.4 °F - 38.5 °F 53% 29.77 in 10.0 mi SSW 15.0 mph 18.4 mph N/A   Mostly Cloudy